ANA545 RJFT-RKPK

Flight info

Callsign ANA545
Flight time 0h 44m
Altitude 29000
Route HINAG G339 DGC/N0392F280 G339 INVOK PEDLO1
Aircraft A20N/M-SDE2E3FGHIRWXY/LB1

Departure

Time 2026-04-24 07:07
Airport Kumamoto Airport (RJFT)

Arrival

Time 2026-04-24 07:52
Airport Gimhae International Airport (RKPK)
Time Latitude Longitude Altitude Speed Heading
2026-04-24 06:47 32.83512 130.85794 634 ft 0 kts 155°
2026-04-24 06:58 32.83517 130.85791 637 ft 2 kts 155°
2026-04-24 06:58 32.83531 130.85784 639 ft 2 kts 155°
2026-04-24 06:58 32.83544 130.85776 634 ft 2 kts 155°
2026-04-24 06:59 32.83558 130.85769 634 ft 2 kts 155°
2026-04-24 06:59 32.83571 130.85762 639 ft 2 kts 161°
2026-04-24 06:59 32.83586 130.85757 634 ft 2 kts 171°
2026-04-24 06:59 32.83600 130.85755 633 ft 2 kts 181°
2026-04-24 07:00 32.83615 130.85756 639 ft 2 kts 191°
2026-04-24 07:00 32.83630 130.85760 638 ft 2 kts 200°
2026-04-24 07:00 32.83643 130.85767 633 ft 2 kts 210°
2026-04-24 07:00 32.83654 130.85775 637 ft 0 kts 218°
2026-04-24 07:02 32.83647 130.85764 638 ft 6 kts 230°
2026-04-24 07:02 32.83615 130.85705 633 ft 11 kts 243°
2026-04-24 07:02 32.83579 130.85614 633 ft 13 kts 246°
2026-04-24 07:03 32.83543 130.85510 641 ft 15 kts 248°
2026-04-24 07:03 32.83497 130.85390 633 ft 17 kts 244°
2026-04-24 07:03 32.83436 130.85245 631 ft 22 kts 243°
2026-04-24 07:03 32.83365 130.85065 631 ft 26 kts 245°
2026-04-24 07:04 32.83282 130.84858 624 ft 29 kts 246°
2026-04-24 07:04 32.83193 130.84632 621 ft 31 kts 244°
2026-04-24 07:04 32.83098 130.84395 617 ft 32 kts 244°
2026-04-24 07:04 32.83033 130.84157 609 ft 11 kts 295°
2026-04-24 07:05 32.83078 130.84112 624 ft 11 kts 329°
2026-04-24 07:05 32.83159 130.84098 613 ft 12 kts 34°
2026-04-24 07:05 32.83178 130.84126 615 ft 0 kts 58°
2026-04-24 07:06 32.83179 130.84127 615 ft 3 kts 58°
2026-04-24 07:06 32.83297 130.84406 617 ft 71 kts 65°
2026-04-24 07:07 32.83593 130.85144 632 ft 124 kts 65°
2026-04-24 07:07 32.84019 130.86209 757 ft 153 kts 64°
2026-04-24 07:07 32.85246 130.88231 2058 ft 149 kts 25°
2026-04-24 07:08 32.86299 130.88378 2450 ft 169 kts 349°
2026-04-24 07:08 32.87382 130.87620 2739 ft 199 kts 314°
2026-04-24 07:08 32.88040 130.86045 3110 ft 232 kts 283°
2026-04-24 07:08 32.88000 130.83950 3277 ft 277 kts 254°
2026-04-24 07:09 32.87044 130.81946 4181 ft 280 kts 224°
2026-04-24 07:09 32.85462 130.80803 5539 ft 268 kts 198°
2026-04-24 07:09 32.83626 130.80479 6473 ft 271 kts 178°
2026-04-24 07:09 32.81714 130.80610 7278 ft 280 kts 178°
2026-04-24 07:10 32.79756 130.80421 8092 ft 287 kts 194°
2026-04-24 07:10 32.77884 130.79605 9072 ft 284 kts 205°
2026-04-24 07:10 32.76113 130.78597 9867 ft 283 kts 207°
2026-04-24 07:10 32.74333 130.77485 10437 ft 298 kts 211°
2026-04-24 07:11 32.72504 130.76137 10787 ft 320 kts 214°
2026-04-24 07:11 32.70596 130.74651 11371 ft 331 kts 214°
2026-04-24 07:11 32.68688 130.73176 12284 ft 332 kts 214°
2026-04-24 07:11 32.66738 130.71694 13211 ft 334 kts 214°
2026-04-24 07:12 32.64764 130.70215 14056 ft 337 kts 215°
2026-04-24 07:12 32.62778 130.68737 14899 ft 337 kts 215°
2026-04-24 07:12 32.60779 130.67254 15692 ft 340 kts 215°
2026-04-24 07:12 32.58767 130.65762 16484 ft 342 kts 215°
2026-04-24 07:13 32.56740 130.64261 17302 ft 345 kts 216°
2026-04-24 07:13 32.54696 130.62743 18100 ft 347 kts 217°
2026-04-24 07:13 32.52883 130.60952 18817 ft 342 kts 230°
2026-04-24 07:13 32.51513 130.58680 19500 ft 338 kts 243°
2026-04-24 07:14 32.50696 130.56081 20248 ft 336 kts 257°
2026-04-24 07:14 32.50454 130.53340 21087 ft 336 kts 268°
2026-04-24 07:14 32.50787 130.50584 21828 ft 342 kts 277°
2026-04-24 07:14 32.51695 130.47949 22560 ft 352 kts 292°
2026-04-24 07:15 32.53225 130.45619 23246 ft 369 kts 307°
2026-04-24 07:15 32.55355 130.43785 23785 ft 391 kts 321°
2026-04-24 07:15 32.57905 130.42469 24261 ft 403 kts 324°
2026-04-24 07:15 32.60506 130.41193 24702 ft 406 kts 324°
2026-04-24 07:16 32.63094 130.39933 25219 ft 409 kts 327°
2026-04-24 07:16 32.65755 130.38696 25667 ft 413 kts 327°
2026-04-24 07:16 32.68441 130.37448 26119 ft 416 kts 326°
2026-04-24 07:16 32.71134 130.36174 26572 ft 418 kts 326°
2026-04-24 07:17 32.73840 130.34873 27001 ft 421 kts 326°
2026-04-24 07:17 32.76559 130.33553 27442 ft 423 kts 325°
2026-04-24 07:17 32.79288 130.32222 27868 ft 425 kts 325°
2026-04-24 07:17 32.82033 130.30880 28246 ft 428 kts 324°
2026-04-24 07:18 32.84798 130.29527 28611 ft 431 kts 324°
2026-04-24 07:18 32.87543 130.28183 28877 ft 434 kts 324°
2026-04-24 07:18 32.93128 130.25451 28936 ft 434 kts 324°
2026-04-24 07:19 32.98706 130.22715 28937 ft 434 kts 324°
2026-04-24 07:19 33.04284 130.19974 28940 ft 434 kts 324°
2026-04-24 07:20 33.09826 130.17246 28941 ft 434 kts 324°
2026-04-24 07:20 33.15407 130.14494 28941 ft 434 kts 324°
2026-04-24 07:21 33.20994 130.11738 28943 ft 435 kts 324°
2026-04-24 07:21 33.26584 130.08976 28946 ft 435 kts 324°
2026-04-24 07:22 33.32173 130.06211 28955 ft 437 kts 324°
2026-04-24 07:22 33.37739 130.03454 28966 ft 435 kts 325°
2026-04-24 07:23 33.43339 130.00676 28972 ft 436 kts 325°
2026-04-24 07:23 33.48944 129.97892 28971 ft 436 kts 326°
2026-04-24 07:24 33.54555 129.95103 28990 ft 437 kts 326°
2026-04-24 07:24 33.60131 129.92327 28859 ft 437 kts 326°
2026-04-24 07:25 33.62937 129.90929 28600 ft 435 kts 326°
2026-04-24 07:25 33.65727 129.89537 28335 ft 432 kts 325°
2026-04-24 07:25 33.68494 129.88141 28077 ft 431 kts 326°
2026-04-24 07:25 33.71259 129.86760 27833 ft 430 kts 327°
2026-04-24 07:26 33.74010 129.85381 27572 ft 428 kts 327°
2026-04-24 07:26 33.76758 129.84008 27319 ft 427 kts 327°
2026-04-24 07:26 33.79439 129.82626 27070 ft 424 kts 326°
2026-04-24 07:26 33.82149 129.81234 26821 ft 424 kts 326°
2026-04-24 07:27 33.84865 129.79865 26575 ft 423 kts 328°
2026-04-24 07:27 33.87586 129.78535 26326 ft 422 kts 329°
2026-04-24 07:27 33.90303 129.77212 26089 ft 420 kts 329°
2026-04-24 07:27 33.93006 129.75884 25859 ft 419 kts 329°
2026-04-24 07:28 33.95687 129.74551 25624 ft 417 kts 329°
2026-04-24 07:28 33.98371 129.73207 25392 ft 416 kts 329°
2026-04-24 07:28 34.00999 129.71885 25167 ft 414 kts 329°
2026-04-24 07:28 34.03657 129.70545 24936 ft 413 kts 330°
2026-04-24 07:29 34.06304 129.69209 24709 ft 412 kts 330°
2026-04-24 07:29 34.08944 129.67875 24489 ft 411 kts 330°
2026-04-24 07:29 34.11581 129.66543 24261 ft 410 kts 330°
2026-04-24 07:29 34.14207 129.65217 24033 ft 409 kts 330°
2026-04-24 07:30 34.16827 129.63892 23816 ft 408 kts 331°
2026-04-24 07:30 34.19442 129.62569 23584 ft 407 kts 331°
2026-04-24 07:30 34.22012 129.61269 23313 ft 405 kts 331°
2026-04-24 07:30 34.24609 129.59954 23045 ft 404 kts 331°
2026-04-24 07:31 34.27194 129.58644 22790 ft 402 kts 332°
2026-04-24 07:31 34.29771 129.57338 22515 ft 401 kts 332°
2026-04-24 07:31 34.32342 129.56033 22251 ft 400 kts 332°
2026-04-24 07:31 34.34902 129.54734 21991 ft 398 kts 332°
2026-04-24 07:32 34.37454 129.53438 21734 ft 397 kts 332°
2026-04-24 07:32 34.39996 129.52146 21465 ft 396 kts 332°
2026-04-24 07:32 34.42509 129.50867 20890 ft 399 kts 333°
2026-04-24 07:32 34.45071 129.49561 20222 ft 400 kts 333°
2026-04-24 07:33 34.47638 129.48254 19529 ft 400 kts 333°
2026-04-24 07:33 34.50198 129.46949 18842 ft 400 kts 333°
2026-04-24 07:33 34.52757 129.45642 18153 ft 399 kts 334°
2026-04-24 07:33 34.55304 129.44340 17490 ft 396 kts 334°
2026-04-24 07:34 34.57832 129.43047 16828 ft 392 kts 334°
2026-04-24 07:34 34.60340 129.41766 16150 ft 390 kts 335°
2026-04-24 07:34 34.62830 129.40493 15477 ft 387 kts 335°
2026-04-24 07:34 34.65309 129.39224 14840 ft 385 kts 336°
2026-04-24 07:35 34.67730 129.37985 14275 ft 381 kts 336°
2026-04-24 07:35 34.70161 129.36739 13676 ft 378 kts 337°
2026-04-24 07:35 34.72567 129.35506 13090 ft 373 kts 337°
2026-04-24 07:35 34.74941 129.34288 12503 ft 368 kts 338°
2026-04-24 07:36 34.77283 129.33074 11936 ft 364 kts 336°
2026-04-24 07:36 34.79500 129.31607 11368 ft 362 kts 329°
2026-04-24 07:36 34.81529 129.29819 10822 ft 359 kts 324°
2026-04-24 07:36 34.83494 129.27993 10485 ft 349 kts 326°
2026-04-24 07:37 34.85364 129.26271 10342 ft 334 kts 326°
2026-04-24 07:37 34.87175 129.24601 10211 ft 320 kts 326°
2026-04-24 07:37 34.88912 129.23000 10092 ft 306 kts 326°
2026-04-24 07:37 34.90575 129.21468 9974 ft 293 kts 327°
2026-04-24 07:38 34.92164 129.20006 9867 ft 280 kts 327°
2026-04-24 07:38 34.93685 129.18608 9741 ft 268 kts 327°
2026-04-24 07:38 34.95152 129.17259 9464 ft 262 kts 327°
2026-04-24 07:38 34.96609 129.15921 9058 ft 262 kts 328°
2026-04-24 07:39 34.98048 129.14597 8658 ft 263 kts 327°
2026-04-24 07:39 34.99511 129.13258 8263 ft 262 kts 330°
2026-04-24 07:39 35.01150 129.12494 8005 ft 251 kts 360°
2026-04-24 07:39 35.02849 129.12801 7764 ft 247 kts 27°
2026-04-24 07:40 35.04233 129.13941 7562 ft 237 kts 48°
2026-04-24 07:40 35.05147 129.15567 7312 ft 232 kts 68°
2026-04-24 07:40 35.05512 129.17463 7071 ft 230 kts 87°
2026-04-24 07:40 35.05278 129.19383 6830 ft 232 kts 107°
2026-04-24 07:41 35.04456 129.21074 6599 ft 241 kts 128°
2026-04-24 07:41 35.03152 129.22381 6356 ft 243 kts 138°
2026-04-24 07:41 35.01798 129.23605 6101 ft 241 kts 138°
2026-04-24 07:41 35.00464 129.24818 6001 ft 238 kts 138°
2026-04-24 07:42 34.99134 129.26041 5994 ft 241 kts 137°
2026-04-24 07:42 34.97866 129.27350 5990 ft 235 kts 123°
2026-04-24 07:42 34.96930 129.28977 5991 ft 238 kts 130°
2026-04-24 07:42 34.95495 129.30033 5998 ft 250 kts 159°
2026-04-24 07:43 34.93728 129.30089 5995 ft 263 kts 189°
2026-04-24 07:43 34.92100 129.29091 5992 ft 273 kts 218°
2026-04-24 07:43 34.90980 129.27220 5998 ft 278 kts 247°
2026-04-24 07:43 34.90548 129.24935 5994 ft 278 kts 269°
2026-04-24 07:44 34.90797 129.22635 5993 ft 274 kts 295°
2026-04-24 07:44 34.91785 129.20701 6010 ft 268 kts 312°
2026-04-24 07:44 34.93020 129.19028 6087 ft 264 kts 321°
2026-04-24 07:44 34.94410 129.17590 6159 ft 261 kts 330°
2026-04-24 07:45 34.95918 129.16375 6159 ft 263 kts 330°
2026-04-24 07:45 34.97237 129.14803 5680 ft 276 kts 309°
2026-04-24 07:45 34.98088 129.12672 5216 ft 285 kts 289°
2026-04-24 07:45 34.98340 129.10264 4760 ft 290 kts 269°
2026-04-24 07:46 34.97954 129.07857 4326 ft 290 kts 250°
2026-04-24 07:46 34.97460 129.05535 4195 ft 277 kts 266°
2026-04-24 07:46 34.97421 129.03235 4088 ft 266 kts 274°
2026-04-24 07:46 34.97484 129.01029 3992 ft 255 kts 274°
2026-04-24 07:47 34.97528 128.98919 3879 ft 242 kts 280°
2026-04-24 07:47 34.98112 128.97131 3735 ft 218 kts 320°
2026-04-24 07:47 34.99308 128.96222 3485 ft 201 kts 350°
2026-04-24 07:47 35.00650 128.95885 3196 ft 195 kts
2026-04-24 07:48 35.01980 128.95740 2971 ft 187 kts
2026-04-24 07:48 35.03256 128.95575 2692 ft 182 kts
2026-04-24 07:48 35.04494 128.95419 2432 ft 176 kts
2026-04-24 07:48 35.05694 128.95265 2180 ft 171 kts
2026-04-24 07:49 35.06851 128.95116 1953 ft 164 kts
2026-04-24 07:49 35.07939 128.94975 1733 ft 150 kts
2026-04-24 07:49 35.08948 128.94847 1542 ft 141 kts
2026-04-24 07:49 35.09896 128.94725 1354 ft 134 kts
2026-04-24 07:50 35.10806 128.94611 1185 ft 134 kts
2026-04-24 07:50 35.11734 128.94492 992 ft 131 kts
2026-04-24 07:50 35.12600 128.94378 816 ft 123 kts
2026-04-24 07:50 35.13504 128.94267 660 ft 136 kts 359°
2026-04-24 07:51 35.14129 128.94185 538 ft 136 kts 359°
2026-04-24 07:51 35.14767 128.94101 411 ft 134 kts 360°
2026-04-24 07:51 35.15689 128.93977 214 ft 134 kts 357°
2026-04-24 07:51 35.16607 128.93854 71 ft 131 kts 358°
2026-04-24 07:52 35.17511 128.93776 26 ft 130 kts 354°
2026-04-24 07:52 35.18254 128.93666 19 ft 79 kts 354°
2026-04-24 07:52 35.18602 128.93609 22 ft 22 kts 357°
2026-04-24 07:52 35.18722 128.93610 23 ft 20 kts
2026-04-24 07:53 35.18862 128.93668 25 ft 22 kts 21°
2026-04-24 07:53 35.18890 128.93682 25 ft 0 kts 21°
2026-04-24 07:53 35.18910 128.93691 27 ft 7 kts 21°
2026-04-24 07:53 35.18965 128.93730 25 ft 11 kts 42°
2026-04-24 07:54 35.19002 128.93842 26 ft 17 kts 80°
2026-04-24 07:54 35.19007 128.94000 24 ft 19 kts 110°
2026-04-24 07:54 35.18899 128.94076 23 ft 19 kts 176°
2026-04-24 07:54 35.18888 128.94077 22 ft 19 kts 175°